Flag for U.S.A. Weather past 2 weeks in Brattleboro, Vermont, U.S.A.

Now
68 °F

Broken clouds.


Feels Like: 68 °F
Forecast: 63 / 76 °F
Wind: No wind

Location: Keene / Dillant

Current Time: Jul 1, 2015 at 11:50:53 AM

Latest Report: Jul 1, 2015 at 11:35 AM


Visibility: 10 mi

Pressure: 29.75 "Hg

Humidity: 83%

Dew point: 63 °F

Location of BrattleboroLocation

Historic Weather in Brattleboro — Graph

°F

Brattleboro temperature yesterday

Maximum temperature yesterday: 77 °F (at 12:35 PM)
Minimum temperature yesterday: 54 °F (at 4:55 AM)
Average temperature yesterday: 64 °F

Past Weeks' High & Low Weather Summary

 TemperatureHumidityPressure
High84 °F (Jun 23, 3:35 PM)94% (Jun 16, 9:15 PM)30.19 "Hg (Jun 16, 9:15 PM)
Low43 °F (Jun 20, 5:15 AM)32% (Jun 24, 4:15 PM)29.65 "Hg (Jun 21, 4:15 PM)
Average65 °F72%29.95 "Hg
* Reported Jun 16 10:15 AM — Jul 1 10:55 AM, Brattleboro, Weather by CustomWeather, © 2015

Note: Actual official high and low records may vary slightly from our data, if they occured in-between our weather recording intervals... More about our weather records

Advertising

Brattleboro weather history for previous 24 hours

 ConditionsComfort  
Time TempWeatherWind HumidityBarometerVisibility
10:55 AM
Wed, Jul 1
66 °FCloudy.No wind83%29.77 "Hg8 mi
10:35 AM66 °FBroken clouds.No wind83%29.77 "Hg9 mi
10:15 AM66 °FBroken clouds.5 mph83%29.77 "Hg10 mi
9:55 AM66 °FCloudy.3 mph83%29.77 "Hg8 mi
9:35 AM66 °FMostly cloudy.3 mph83%29.76 "Hg10 mi
9:15 AM66 °FBroken clouds.3 mph83%29.77 "Hg10 mi
8:55 AM66 °FMostly cloudy.3 mph83%29.78 "Hg10 mi
8:35 AM64 °FBroken clouds.No wind88%29.79 "Hg5 mi
8:15 AM64 °FBroken clouds.No wind83%29.83 "Hg6 mi
7:55 AM66 °FMostly cloudy.14 mph83%29.85 "Hg5 mi
7:35 AM66 °FThundershowers. Broken clouds.8 mph83%29.80 "Hg6 mi
7:15 AM64 °FMore clouds than sun.No wind88%29.80 "Hg5 mi
6:55 AM64 °FThundershowers. Mostly cloudy.No wind88%29.81 "Hg5 mi
6:35 AM64 °FBroken clouds.No wind88%29.81 "Hg8 mi
6:15 AM64 °FPartly sunny.No wind88%29.81 "Hg8 mi
5:55 AM64 °FPartly cloudy.No wind88%29.82 "Hg7 mi
5:35 AM64 °FMostly cloudy.No wind88%29.83 "Hg10 mi
5:15 AM64 °FOvercast.No wind88%29.84 "Hg9 mi
4:55 AM64 °FPartly cloudy.No wind88%29.84 "Hg10 mi
4:35 AM64 °FOvercast.3 mph88%29.85 "Hg9 mi
4:15 AM64 °FOvercast.3 mph83%29.87 "Hg10 mi
3:55 AM64 °FOvercast.6 mph78%29.87 "Hg10 mi
3:35 AM63 °FPartly cloudy.No wind83%29.87 "Hg10 mi
3:15 AM63 °FPassing clouds.No wind83%29.87 "Hg10 mi
2:55 AM63 °FPartly cloudy.No wind83%29.88 "Hg10 mi
2:35 AM63 °FPartly cloudy.No wind83%29.88 "Hg10 mi
2:15 AM63 °FPassing clouds.No wind83%29.89 "Hg10 mi
1:55 AM63 °FPartly cloudy.No wind83%29.90 "Hg10 mi
1:35 AM63 °FPartly cloudy.No wind83%29.91 "Hg10 mi
1:15 AM64 °FPassing clouds.No wind83%29.92 "Hg10 mi
12:15 AM63 °FPassing clouds.No wind88%29.93 "Hg10 mi
11:55 PM
Tue, Jun 30
64 °FPassing clouds.No wind83%29.94 "Hg9 mi
11:35 PM64 °FPassing clouds.No wind83%29.94 "Hg10 mi
11:15 PM64 °FPassing clouds.No wind88%29.94 "Hg10 mi
10:55 PM64 °FPassing clouds.No wind88%29.94 "Hg10 mi
10:35 PM66 °FPassing clouds.No wind83%29.94 "Hg10 mi
10:15 PM66 °FPassing clouds.No wind83%29.95 "Hg10 mi
9:55 PM64 °FPartly cloudy.No wind88%29.96 "Hg10 mi
9:35 PM64 °FPassing clouds.No wind88%29.94 "Hg10 mi
9:15 PM66 °FScattered clouds.No wind83%29.94 "Hg10 mi
8:55 PM66 °FPartly sunny.No wind88%29.94 "Hg10 mi
8:35 PM66 °FPartly sunny.No wind88%29.94 "Hg10 mi
8:15 PM68 °FScattered clouds.No wind83%29.94 "Hg10 mi
7:55 PM68 °FPassing clouds.No wind83%29.93 "Hg10 mi
7:35 PM68 °FBroken clouds.No wind83%29.92 "Hg10 mi
7:15 PM70 °FPartly sunny.No wind78%29.93 "Hg10 mi
6:55 PM70 °FBroken clouds.No wind78%29.92 "Hg10 mi
6:35 PM70 °FPartly sunny.3 mph78%29.93 "Hg10 mi
6:15 PM70 °FPartly sunny.3 mph73%29.93 "Hg10 mi
5:55 PM70 °FPassing clouds.No wind78%29.94 "Hg10 mi
5:35 PM70 °FScattered clouds.No wind78%29.94 "Hg10 mi
5:15 PM70 °FBroken clouds.No wind78%29.94 "Hg10 mi
4:55 PM70 °FBroken clouds.No wind78%29.95 "Hg10 mi
4:35 PM72 °FPassing clouds.No wind73%29.96 "Hg10 mi
4:15 PM72 °FPassing clouds.No wind78%29.96 "Hg10 mi
3:55 PM70 °FPassing clouds.No wind78%29.96 "Hg10 mi
3:35 PM73 °FScattered clouds.No wind65%29.96 "Hg10 mi
3:15 PM75 °FPassing clouds.3 mph50%29.98 "Hg10 mi
2:55 PM75 °FSunny.6 mph50%29.98 "Hg10 mi
2:35 PM75 °FScattered clouds.5 mph50%29.98 "Hg10 mi
2:15 PM75 °FOvercast.5 mph47%29.98 "Hg10 mi
1:55 PM77 °FPartly sunny.9 mph44%29.98 "Hg10 mi
12:55 PMN/ASunny.No windN/A29.97 "Hg10 mi
12:35 PM77 °FPassing clouds.5 mph44%29.98 "Hg10 mi
11:55 AM73 °FSunny.5 mph50%29.99 "Hg10 mi
Weather by CustomWeather, © 2015

See weather overviewHow to use our weather pages